Year,Month,Day,Hour,Minute,Value (Times are PST for temperature in C)
2013,05,07,00,00,15.60
2013,05,07,00,01,15.60
2013,05,07,00,02,15.60
2013,05,07,00,03,15.60
2013,05,07,00,04,15.60
2013,05,07,00,05,15.60
2013,05,07,00,06,15.60
2013,05,07,00,07,15.60
2013,05,07,00,08,15.50
2013,05,07,00,09,15.50
2013,05,07,00,10,15.50
2013,05,07,00,11,15.40
2013,05,07,00,12,15.40
2013,05,07,00,13,15.40
2013,05,07,00,14,15.40
2013,05,07,00,15,15.40
2013,05,07,00,16,15.30
2013,05,07,00,17,15.30
2013,05,07,00,18,15.30
2013,05,07,00,19,15.20
2013,05,07,00,20,15.20
2013,05,07,00,21,15.10
2013,05,07,00,22,15.10
2013,05,07,00,23,15.00
2013,05,07,00,24,15.00
2013,05,07,00,25,14.90
2013,05,07,00,26,14.90
2013,05,07,00,27,14.80
2013,05,07,00,28,14.70
2013,05,07,00,29,14.60
2013,05,07,00,30,14.60
2013,05,07,00,31,14.50
2013,05,07,00,32,14.40
2013,05,07,00,33,14.30
2013,05,07,00,34,14.20
2013,05,07,00,35,14.10
2013,05,07,00,36,14.00
2013,05,07,00,37,13.90
2013,05,07,00,38,13.90
2013,05,07,00,39,13.80
2013,05,07,00,40,13.80
2013,05,07,00,41,13.80
2013,05,07,00,42,13.70
2013,05,07,00,43,13.70
2013,05,07,00,44,13.70
2013,05,07,00,45,13.60
2013,05,07,00,46,13.60
2013,05,07,00,47,13.60
2013,05,07,00,48,13.60
2013,05,07,00,49,13.60
2013,05,07,00,50,13.60
2013,05,07,00,51,13.60
2013,05,07,00,52,13.60
2013,05,07,00,53,13.50
2013,05,07,00,54,13.50
2013,05,07,00,55,13.50
2013,05,07,00,56,13.50
2013,05,07,00,57,13.40
2013,05,07,00,58,13.40
2013,05,07,00,59,13.40
2013,05,07,01,00,13.40
2013,05,07,01,01,13.40
2013,05,07,01,02,13.40
2013,05,07,01,03,13.40
2013,05,07,01,04,13.40
2013,05,07,01,05,13.40
2013,05,07,01,06,13.40
2013,05,07,01,07,13.40
2013,05,07,01,08,13.40
2013,05,07,01,09,13.40
2013,05,07,01,10,13.40
2013,05,07,01,11,13.40
2013,05,07,01,12,13.40
2013,05,07,01,13,13.40
2013,05,07,01,14,13.30
2013,05,07,01,15,13.30
2013,05,07,01,16,13.30
2013,05,07,01,17,13.30
2013,05,07,01,18,13.30
2013,05,07,01,19,13.30
2013,05,07,01,20,13.30
2013,05,07,01,21,13.30
2013,05,07,01,22,13.30
2013,05,07,01,23,13.30
2013,05,07,01,24,13.30
2013,05,07,01,25,13.30
2013,05,07,01,26,13.30
2013,05,07,01,27,13.30
2013,05,07,01,28,13.20
2013,05,07,01,29,13.20
2013,05,07,01,30,13.20
2013,05,07,01,31,13.20
2013,05,07,01,32,13.10
2013,05,07,01,33,13.10
2013,05,07,01,34,13.10
2013,05,07,01,35,13.10
2013,05,07,01,36,13.10
2013,05,07,01,37,13.10
2013,05,07,01,38,13.10
2013,05,07,01,39,13.10
2013,05,07,01,40,13.10
2013,05,07,01,41,13.00
2013,05,07,01,42,13.00
2013,05,07,01,43,13.00
2013,05,07,01,44,13.00
2013,05,07,01,45,13.00
2013,05,07,01,46,13.00
2013,05,07,01,47,13.00
2013,05,07,01,48,12.90
2013,05,07,01,49,12.90
2013,05,07,01,50,12.90
2013,05,07,01,51,12.90
2013,05,07,01,52,12.90
2013,05,07,01,53,12.90
2013,05,07,01,54,12.90
2013,05,07,01,55,12.80
2013,05,07,01,56,12.80
2013,05,07,01,57,12.80
2013,05,07,01,58,12.70
2013,05,07,01,59,12.70
2013,05,07,02,00,12.70
2013,05,07,02,01,12.70
2013,05,07,02,02,12.60
2013,05,07,02,03,12.60
2013,05,07,02,04,12.60
2013,05,07,02,05,12.50
2013,05,07,02,06,12.50
2013,05,07,02,07,12.50
2013,05,07,02,08,12.50
2013,05,07,02,09,12.40
2013,05,07,02,10,12.40
2013,05,07,02,11,12.40
2013,05,07,02,12,12.40
2013,05,07,02,13,12.40
2013,05,07,02,14,12.40
2013,05,07,02,15,12.40
2013,05,07,02,16,12.40
2013,05,07,02,17,12.40
2013,05,07,02,18,12.40
2013,05,07,02,19,12.40
2013,05,07,02,20,12.40
2013,05,07,02,21,12.40
2013,05,07,02,22,12.40
2013,05,07,02,23,12.40
2013,05,07,02,24,12.30
2013,05,07,02,25,12.30
2013,05,07,02,26,12.30
2013,05,07,02,27,12.30
2013,05,07,02,28,12.30
2013,05,07,02,29,12.30
2013,05,07,02,30,12.30
2013,05,07,02,31,12.30
2013,05,07,02,32,12.30
2013,05,07,02,33,12.20
2013,05,07,02,34,12.20
2013,05,07,02,35,12.20
2013,05,07,02,36,12.20
2013,05,07,02,37,12.20
2013,05,07,02,38,12.10
2013,05,07,02,39,12.10
2013,05,07,02,40,12.10
2013,05,07,02,41,12.10
2013,05,07,02,42,12.10
2013,05,07,02,43,12.00
2013,05,07,02,44,12.00
2013,05,07,02,45,11.90
2013,05,07,02,46,11.90
2013,05,07,02,47,11.90
2013,05,07,02,48,11.80
2013,05,07,02,49,11.80
2013,05,07,02,50,11.80
2013,05,07,02,51,11.80
2013,05,07,02,52,11.80
2013,05,07,02,53,11.80
2013,05,07,02,54,11.80
2013,05,07,02,55,11.70
2013,05,07,02,56,11.70
2013,05,07,02,57,11.70
2013,05,07,02,58,11.70
2013,05,07,02,59,11.60
2013,05,07,03,00,11.60
2013,05,07,03,01,11.60
2013,05,07,03,02,11.60
2013,05,07,03,03,11.50
2013,05,07,03,04,11.50
2013,05,07,03,05,11.40
2013,05,07,03,06,11.40
2013,05,07,03,07,11.40
2013,05,07,03,08,11.30
2013,05,07,03,09,11.30
2013,05,07,03,10,11.20
2013,05,07,03,11,11.20
2013,05,07,03,12,11.20
2013,05,07,03,13,11.10
2013,05,07,03,14,11.10
2013,05,07,03,15,11.00
2013,05,07,03,16,11.00
2013,05,07,03,17,10.90
2013,05,07,03,18,10.90
2013,05,07,03,19,10.90
2013,05,07,03,20,10.80
2013,05,07,03,21,10.80
2013,05,07,03,22,10.70
2013,05,07,03,23,10.70
2013,05,07,03,24,10.70
2013,05,07,03,25,10.60
2013,05,07,03,26,10.60
2013,05,07,03,27,10.60
2013,05,07,03,28,10.50
2013,05,07,03,29,10.50
2013,05,07,03,30,10.50
2013,05,07,03,31,10.40
2013,05,07,03,32,10.40
2013,05,07,03,33,10.40
2013,05,07,03,34,10.40
2013,05,07,03,35,10.40
2013,05,07,03,36,10.40
2013,05,07,03,37,10.40
2013,05,07,03,38,10.40
2013,05,07,03,39,10.30
2013,05,07,03,40,10.30
2013,05,07,03,41,10.30
2013,05,07,03,42,10.30
2013,05,07,03,43,10.30
2013,05,07,03,44,10.30
2013,05,07,03,45,10.30
2013,05,07,03,46,10.30
2013,05,07,03,47,10.30
2013,05,07,03,48,10.30
2013,05,07,03,49,10.30
2013,05,07,03,50,10.30
2013,05,07,03,51,10.30
2013,05,07,03,52,10.30
2013,05,07,03,53,10.20
2013,05,07,03,54,10.20
2013,05,07,03,55,10.20
2013,05,07,03,56,10.20
2013,05,07,03,57,10.20
2013,05,07,03,58,10.20
2013,05,07,03,59,10.20
2013,05,07,04,00,10.10
2013,05,07,04,01,10.10
2013,05,07,04,02,10.10
2013,05,07,04,03,10.10
2013,05,07,04,04,10.00
2013,05,07,04,05,10.00
2013,05,07,04,06,10.00
2013,05,07,04,07,10.00
2013,05,07,04,08,10.00
2013,05,07,04,09,9.90
2013,05,07,04,10,9.90
2013,05,07,04,11,9.90
2013,05,07,04,12,9.90
2013,05,07,04,13,9.90
2013,05,07,04,14,9.90
2013,05,07,04,15,9.90
2013,05,07,04,16,9.80
2013,05,07,04,17,9.80
2013,05,07,04,18,9.80
2013,05,07,04,19,9.80
2013,05,07,04,20,9.70
2013,05,07,04,21,9.70
2013,05,07,04,22,9.70
2013,05,07,04,23,9.70
2013,05,07,04,24,9.70
2013,05,07,04,25,9.70
2013,05,07,04,26,9.70
2013,05,07,04,27,9.70
2013,05,07,04,28,9.70
2013,05,07,04,29,9.70
2013,05,07,04,30,9.70
2013,05,07,04,31,9.60
2013,05,07,04,32,9.60
2013,05,07,04,33,9.60
2013,05,07,04,34,9.60
2013,05,07,04,35,9.60
2013,05,07,04,36,9.60
2013,05,07,04,37,9.60
2013,05,07,04,38,9.60
2013,05,07,04,39,9.60
2013,05,07,04,40,9.60
2013,05,07,04,41,9.50
2013,05,07,04,42,9.50
2013,05,07,04,43,9.50
2013,05,07,04,44,9.50
2013,05,07,04,45,9.40
2013,05,07,04,46,9.40
2013,05,07,04,47,9.40
2013,05,07,04,48,9.40
2013,05,07,04,49,9.40
2013,05,07,04,50,9.40
2013,05,07,04,51,9.40
2013,05,07,04,52,9.40
2013,05,07,04,53,9.40
2013,05,07,04,54,9.40
2013,05,07,04,55,9.40
2013,05,07,04,56,9.40
2013,05,07,04,57,9.40
2013,05,07,04,58,9.40
2013,05,07,04,59,9.40
2013,05,07,05,00,9.40
2013,05,07,05,01,9.30
2013,05,07,05,02,9.30
2013,05,07,05,03,9.30
2013,05,07,05,04,9.30
2013,05,07,05,05,9.30
2013,05,07,05,06,9.30
2013,05,07,05,07,9.30
2013,05,07,05,08,9.30
2013,05,07,05,09,9.30
2013,05,07,05,10,9.30
2013,05,07,05,11,9.30
2013,05,07,05,12,9.30
2013,05,07,05,13,9.30
2013,05,07,05,14,9.30
2013,05,07,05,15,9.30
2013,05,07,05,16,9.30
2013,05,07,05,17,9.30
2013,05,07,05,18,9.30
2013,05,07,05,19,9.30
2013,05,07,05,20,9.30
2013,05,07,05,21,9.30
2013,05,07,05,22,9.30
2013,05,07,05,23,9.30
2013,05,07,05,24,9.30
2013,05,07,05,25,9.30
2013,05,07,05,26,9.30
2013,05,07,05,27,9.30
2013,05,07,05,28,9.30
2013,05,07,05,29,9.30
2013,05,07,05,30,9.30
2013,05,07,05,31,9.30
2013,05,07,05,32,9.30
2013,05,07,05,33,9.30
2013,05,07,05,34,9.30
2013,05,07,05,35,9.30
2013,05,07,05,36,9.30
2013,05,07,05,37,9.20
2013,05,07,05,38,9.20
2013,05,07,05,39,9.20
2013,05,07,05,40,9.20
2013,05,07,05,41,9.30
2013,05,07,05,42,9.30
2013,05,07,05,43,9.20
2013,05,07,05,44,9.20
2013,05,07,05,45,9.20
2013,05,07,05,46,9.20
2013,05,07,05,47,9.20
2013,05,07,05,48,9.20
2013,05,07,05,49,9.20
2013,05,07,05,50,9.20
2013,05,07,05,51,9.20
2013,05,07,05,52,9.20
2013,05,07,05,53,9.20
2013,05,07,05,54,9.20
2013,05,07,05,55,9.20
2013,05,07,05,56,9.20
2013,05,07,05,57,9.20
2013,05,07,05,58,9.20
2013,05,07,05,59,9.20
2013,05,07,06,00,9.20
2013,05,07,06,01,9.20
2013,05,07,06,02,9.20
2013,05,07,06,03,9.20
2013,05,07,06,04,9.20
2013,05,07,06,05,9.20
2013,05,07,06,06,9.20
2013,05,07,06,07,9.20
2013,05,07,06,08,9.20
2013,05,07,06,09,9.20
2013,05,07,06,10,9.20
2013,05,07,06,11,9.20
2013,05,07,06,12,9.20
2013,05,07,06,13,9.20
2013,05,07,06,14,9.20
2013,05,07,06,15,9.20
2013,05,07,06,16,9.20
2013,05,07,06,17,9.20
2013,05,07,06,18,9.30
2013,05,07,06,19,9.30
2013,05,07,06,20,9.30
2013,05,07,06,21,9.30
2013,05,07,06,22,9.30
2013,05,07,06,23,9.30
2013,05,07,06,24,9.30
2013,05,07,06,25,9.30
2013,05,07,06,26,9.30
2013,05,07,06,27,9.30
2013,05,07,06,28,9.30
2013,05,07,06,29,9.30
2013,05,07,06,30,9.30
2013,05,07,06,31,9.30
2013,05,07,06,32,9.30
2013,05,07,06,33,9.40
2013,05,07,06,34,9.40
2013,05,07,06,35,9.40
2013,05,07,06,36,9.40
2013,05,07,06,37,9.40
2013,05,07,06,38,9.40
2013,05,07,06,39,9.40
2013,05,07,06,40,9.40
2013,05,07,06,41,9.40
2013,05,07,06,42,9.40
2013,05,07,06,43,9.40
2013,05,07,06,44,9.50
2013,05,07,06,45,9.50
2013,05,07,06,46,9.50
2013,05,07,06,47,9.50
2013,05,07,06,48,9.50
2013,05,07,06,49,9.50
2013,05,07,06,50,9.50
2013,05,07,06,51,9.60
2013,05,07,06,52,9.60
2013,05,07,06,53,9.60
2013,05,07,06,54,9.60
2013,05,07,06,55,9.60
2013,05,07,06,56,9.60
2013,05,07,06,57,9.60
2013,05,07,06,58,9.70
2013,05,07,06,59,9.70
2013,05,07,07,00,9.70
2013,05,07,07,01,9.70
2013,05,07,07,02,9.70
2013,05,07,07,03,9.70
2013,05,07,07,04,9.80
2013,05,07,07,05,9.80
2013,05,07,07,06,9.80
2013,05,07,07,07,9.80
2013,05,07,07,08,9.80
2013,05,07,07,09,9.90
2013,05,07,07,10,9.90
2013,05,07,07,11,9.90
2013,05,07,07,12,10.00
2013,05,07,07,13,10.00
2013,05,07,07,14,10.00
2013,05,07,07,15,10.10
2013,05,07,07,16,10.10
2013,05,07,07,17,10.10
2013,05,07,07,18,10.10
2013,05,07,07,19,10.20
2013,05,07,07,20,10.20
2013,05,07,07,21,10.20
2013,05,07,07,22,10.30
2013,05,07,07,23,10.30
2013,05,07,07,24,10.30
2013,05,07,07,25,10.40
2013,05,07,07,26,10.40
2013,05,07,07,27,10.40
2013,05,07,07,28,10.40
2013,05,07,07,29,10.50
2013,05,07,07,30,10.60
2013,05,07,07,31,10.60
2013,05,07,07,32,10.60
2013,05,07,07,33,10.70
2013,05,07,07,34,10.70
2013,05,07,07,35,10.70
2013,05,07,07,36,10.70
2013,05,07,07,37,10.70
2013,05,07,07,38,10.70
2013,05,07,07,39,10.70
2013,05,07,07,40,10.70
2013,05,07,07,41,10.70
2013,05,07,07,42,10.80
2013,05,07,07,43,10.80
2013,05,07,07,44,10.90
2013,05,07,07,45,10.90
2013,05,07,07,46,11.00
2013,05,07,07,47,11.10
2013,05,07,07,48,11.20
2013,05,07,07,49,11.30
2013,05,07,07,50,11.40
2013,05,07,07,51,11.40
2013,05,07,07,52,11.40
2013,05,07,07,53,11.40
2013,05,07,07,54,11.50
2013,05,07,07,55,11.50
2013,05,07,07,56,11.50
2013,05,07,07,57,11.50
2013,05,07,07,58,11.60
2013,05,07,07,59,11.60
2013,05,07,08,00,11.60
2013,05,07,08,01,11.70
2013,05,07,08,02,11.70
2013,05,07,08,03,11.70
2013,05,07,08,04,11.80
2013,05,07,08,05,11.80
2013,05,07,08,06,11.80
2013,05,07,08,07,11.90
2013,05,07,08,08,12.00
2013,05,07,08,09,12.10
2013,05,07,08,10,12.20
2013,05,07,08,11,12.30
2013,05,07,08,12,12.40
2013,05,07,08,13,12.50
2013,05,07,08,14,12.60
2013,05,07,08,15,12.70
2013,05,07,08,16,12.80
2013,05,07,08,17,12.70
2013,05,07,08,18,12.70
2013,05,07,08,19,12.60
2013,05,07,08,20,12.50
2013,05,07,08,21,12.40
2013,05,07,08,22,12.30
2013,05,07,08,23,12.30
2013,05,07,08,24,12.30
2013,05,07,08,25,12.20
2013,05,07,08,26,12.20
2013,05,07,08,27,12.20
2013,05,07,08,28,12.10
2013,05,07,08,29,12.10
2013,05,07,08,30,12.10
2013,05,07,08,31,12.10
2013,05,07,08,32,12.10
2013,05,07,08,33,12.10
2013,05,07,08,34,12.10
2013,05,07,08,35,12.20
2013,05,07,08,36,12.20
2013,05,07,08,37,12.20
2013,05,07,08,38,12.20
2013,05,07,08,39,12.20
2013,05,07,08,40,12.20
2013,05,07,08,41,12.20
2013,05,07,08,42,12.20
2013,05,07,08,43,12.30
2013,05,07,08,44,12.30
2013,05,07,08,45,12.30
2013,05,07,08,46,12.30
2013,05,07,08,47,12.30
2013,05,07,08,48,12.30
2013,05,07,08,49,12.30
2013,05,07,08,50,12.40
2013,05,07,08,51,12.40
2013,05,07,08,52,12.40
2013,05,07,08,53,12.40
2013,05,07,08,54,12.40
2013,05,07,08,55,12.40
2013,05,07,08,56,12.50
2013,05,07,08,57,12.50
2013,05,07,08,58,12.60
2013,05,07,08,59,12.60
2013,05,07,09,00,12.60
2013,05,07,09,01,12.70
2013,05,07,09,02,12.70
2013,05,07,09,03,12.70
2013,05,07,09,04,12.70
2013,05,07,09,05,12.70
2013,05,07,09,06,12.80
2013,05,07,09,07,12.90
2013,05,07,09,08,12.90
2013,05,07,09,09,13.00
2013,05,07,09,10,13.00
2013,05,07,09,11,13.00
2013,05,07,09,12,13.00
2013,05,07,09,13,13.10
2013,05,07,09,14,13.10
2013,05,07,09,15,13.10
2013,05,07,09,16,13.10
2013,05,07,09,17,13.10
2013,05,07,09,18,13.00
2013,05,07,09,19,12.90
2013,05,07,09,20,12.90
2013,05,07,09,21,12.80
2013,05,07,09,22,12.70
2013,05,07,09,23,12.60
2013,05,07,09,24,12.60
2013,05,07,09,25,12.50
2013,05,07,09,26,12.40
2013,05,07,09,27,12.40
2013,05,07,09,28,12.30
2013,05,07,09,29,12.30
2013,05,07,09,30,12.30
2013,05,07,09,31,12.30
2013,05,07,09,32,12.30
2013,05,07,09,33,12.30
2013,05,07,09,34,12.30
2013,05,07,09,35,12.30
2013,05,07,09,36,12.30
2013,05,07,09,37,12.30
2013,05,07,09,38,12.30
2013,05,07,09,39,12.40
2013,05,07,09,40,12.40
2013,05,07,09,41,12.50
2013,05,07,09,42,12.50
2013,05,07,09,43,12.60
2013,05,07,09,44,12.60
2013,05,07,09,45,12.70
2013,05,07,09,46,12.70
2013,05,07,09,47,12.70
2013,05,07,09,48,12.70
2013,05,07,09,49,12.60
2013,05,07,09,50,12.50
2013,05,07,09,51,12.40
2013,05,07,09,52,12.50
2013,05,07,09,53,12.50
2013,05,07,09,54,12.60
2013,05,07,09,55,12.60
2013,05,07,09,56,12.60
2013,05,07,09,57,12.60
2013,05,07,09,58,12.50
2013,05,07,09,59,12.50
2013,05,07,10,00,12.50
2013,05,07,10,01,12.60
2013,05,07,10,02,12.60
2013,05,07,10,03,12.50
2013,05,07,10,04,12.40
2013,05,07,10,05,12.30
2013,05,07,10,06,12.20
2013,05,07,10,07,12.10
2013,05,07,10,08,12.10
2013,05,07,10,09,12.10
2013,05,07,10,10,12.00
2013,05,07,10,11,12.00
2013,05,07,10,12,12.00
2013,05,07,10,13,11.90
2013,05,07,10,14,11.80
2013,05,07,10,15,11.60
2013,05,07,10,16,11.60
2013,05,07,10,17,11.60
2013,05,07,10,18,11.60
2013,05,07,10,19,11.60
2013,05,07,10,20,11.60
2013,05,07,10,21,11.60
2013,05,07,10,22,11.60
2013,05,07,10,23,11.60
2013,05,07,10,24,11.60
2013,05,07,10,25,11.60
2013,05,07,10,26,11.70
2013,05,07,10,27,11.70
2013,05,07,10,28,11.70
2013,05,07,10,29,11.70
2013,05,07,10,30,11.70
2013,05,07,10,31,11.70
2013,05,07,10,32,11.80
2013,05,07,10,33,11.80
2013,05,07,10,34,11.90
2013,05,07,10,35,11.90
2013,05,07,10,36,11.90
2013,05,07,10,37,11.90
2013,05,07,10,38,11.90
2013,05,07,10,39,11.90
2013,05,07,10,40,11.90
2013,05,07,10,41,11.90
2013,05,07,10,42,11.90
2013,05,07,10,43,11.90
2013,05,07,10,44,11.90
2013,05,07,10,45,11.90
2013,05,07,10,46,11.90
2013,05,07,10,47,11.90
2013,05,07,10,48,11.80
2013,05,07,10,49,11.80
2013,05,07,10,50,11.80
2013,05,07,10,51,11.80
2013,05,07,10,52,11.80
2013,05,07,10,53,11.70
2013,05,07,10,54,11.70
2013,05,07,10,55,11.70
2013,05,07,10,56,11.80
2013,05,07,10,57,11.80
2013,05,07,10,58,11.80
2013,05,07,10,59,11.80
2013,05,07,11,00,11.80
2013,05,07,11,01,11.70
2013,05,07,11,02,11.70
2013,05,07,11,03,11.70
2013,05,07,11,04,11.70
2013,05,07,11,05,11.70
2013,05,07,11,06,11.80
2013,05,07,11,07,11.80
2013,05,07,11,08,11.70
2013,05,07,11,09,11.60
2013,05,07,11,10,11.60
2013,05,07,11,11,11.50
2013,05,07,11,12,11.40
2013,05,07,11,13,11.30
2013,05,07,11,14,11.30
2013,05,07,11,15,11.20
2013,05,07,11,16,11.20
2013,05,07,11,17,11.20
2013,05,07,11,18,11.10
2013,05,07,11,19,11.00
2013,05,07,11,20,10.90
2013,05,07,11,21,10.90
2013,05,07,11,22,10.90
2013,05,07,11,23,10.80
2013,05,07,11,24,10.80
2013,05,07,11,25,10.80
2013,05,07,11,26,10.90
2013,05,07,11,27,11.00
2013,05,07,11,28,11.10
2013,05,07,11,29,11.20
2013,05,07,11,30,11.10
2013,05,07,11,31,11.10
2013,05,07,11,32,11.10
2013,05,07,11,33,11.20
2013,05,07,11,34,11.20
2013,05,07,11,35,11.20
2013,05,07,11,36,11.10
2013,05,07,11,37,11.10
2013,05,07,11,38,11.00
2013,05,07,11,39,11.00
2013,05,07,11,40,11.00
2013,05,07,11,41,11.00
2013,05,07,11,42,11.10
2013,05,07,11,43,11.10
2013,05,07,11,44,11.10
2013,05,07,11,45,11.10
2013,05,07,11,46,11.20
2013,05,07,11,47,11.20
2013,05,07,11,48,11.20
2013,05,07,11,49,11.30
2013,05,07,11,50,11.30
2013,05,07,11,51,11.20
2013,05,07,11,52,11.20
2013,05,07,11,53,11.10
2013,05,07,11,54,11.00
2013,05,07,11,55,11.00
2013,05,07,11,56,11.00
2013,05,07,11,57,11.10
2013,05,07,11,58,11.20
2013,05,07,11,59,11.10
2013,05,07,12,00,11.20
2013,05,07,12,01,11.20
2013,05,07,12,02,11.20
2013,05,07,12,03,11.10
2013,05,07,12,04,11.10
2013,05,07,12,05,11.10
2013,05,07,12,06,11.10
2013,05,07,12,07,11.10
2013,05,07,12,08,11.20
2013,05,07,12,09,11.20
2013,05,07,12,10,11.20
2013,05,07,12,11,11.20
2013,05,07,12,12,11.20
2013,05,07,12,13,11.20
2013,05,07,12,14,11.20
2013,05,07,12,15,11.20
2013,05,07,12,16,11.20
2013,05,07,12,17,11.20
2013,05,07,12,18,11.20
2013,05,07,12,19,11.20
2013,05,07,12,20,11.20
2013,05,07,12,21,11.30
2013,05,07,12,22,11.30
2013,05,07,12,23,11.30
2013,05,07,12,24,11.30
2013,05,07,12,25,11.30
2013,05,07,12,26,11.20
2013,05,07,12,27,11.10
2013,05,07,12,28,11.10
2013,05,07,12,29,11.10
2013,05,07,12,30,11.20
2013,05,07,12,31,11.20
2013,05,07,12,32,11.20
2013,05,07,12,33,11.20
2013,05,07,12,34,11.20
2013,05,07,12,35,11.20
2013,05,07,12,36,11.30
2013,05,07,12,37,11.30
2013,05,07,12,38,11.30
2013,05,07,12,39,11.40
2013,05,07,12,40,11.50
2013,05,07,12,41,11.50
2013,05,07,12,42,11.40
2013,05,07,12,43,11.30
2013,05,07,12,44,11.30
2013,05,07,12,45,11.30
2013,05,07,12,46,11.20
2013,05,07,12,47,11.10
2013,05,07,12,48,11.10
2013,05,07,12,49,11.00
2013,05,07,12,50,11.10
2013,05,07,12,51,11.20
2013,05,07,12,52,11.30
2013,05,07,12,53,11.30
2013,05,07,12,54,11.20
2013,05,07,12,55,11.20
2013,05,07,12,56,11.20
2013,05,07,12,57,11.10
2013,05,07,12,58,11.10
2013,05,07,12,59,11.20
2013,05,07,13,00,11.20
2013,05,07,13,01,11.20
2013,05,07,13,02,11.10
2013,05,07,13,03,11.10
2013,05,07,13,04,11.10
2013,05,07,13,05,11.10
2013,05,07,13,06,11.10
2013,05,07,13,07,11.10
2013,05,07,13,08,11.10
2013,05,07,13,09,11.10
2013,05,07,13,10,11.10
2013,05,07,13,11,11.00
2013,05,07,13,12,10.90
2013,05,07,13,13,11.00
2013,05,07,13,14,11.00
2013,05,07,13,15,11.00
2013,05,07,13,16,11.10
2013,05,07,13,17,11.10
2013,05,07,13,18,11.20
2013,05,07,13,19,11.20
2013,05,07,13,20,11.10
2013,05,07,13,21,11.10
2013,05,07,13,22,11.20
2013,05,07,13,23,11.20
2013,05,07,13,24,11.20
2013,05,07,13,25,11.20
2013,05,07,13,26,11.30
2013,05,07,13,27,11.30
2013,05,07,13,28,11.30
2013,05,07,13,29,11.30
2013,05,07,13,30,11.30
2013,05,07,13,31,11.30
2013,05,07,13,32,11.40
2013,05,07,13,33,11.40
2013,05,07,13,34,11.40
2013,05,07,13,35,11.50
2013,05,07,13,36,11.60
2013,05,07,13,37,11.70
2013,05,07,13,38,11.70
2013,05,07,13,39,11.80
2013,05,07,13,40,11.80
2013,05,07,13,41,11.80
2013,05,07,13,42,11.80
2013,05,07,13,43,11.80
2013,05,07,13,44,11.80
2013,05,07,13,45,11.80
2013,05,07,13,46,11.90
2013,05,07,13,47,11.90
2013,05,07,13,48,11.90
2013,05,07,13,49,11.90
2013,05,07,13,50,11.90
2013,05,07,13,51,11.90
2013,05,07,13,52,11.90
2013,05,07,13,53,11.90
2013,05,07,13,54,11.90
2013,05,07,13,55,11.80
2013,05,07,13,56,11.80
2013,05,07,13,57,11.80
2013,05,07,13,58,11.80
2013,05,07,13,59,11.80
2013,05,07,14,00,11.80
2013,05,07,14,01,11.80
2013,05,07,14,02,11.80
2013,05,07,14,03,11.70
2013,05,07,14,04,11.60
2013,05,07,14,05,11.50
2013,05,07,14,06,11.50
2013,05,07,14,07,11.50
2013,05,07,14,08,11.50
2013,05,07,14,09,11.50
2013,05,07,14,10,11.50
2013,05,07,14,11,11.50
2013,05,07,14,12,11.50
2013,05,07,14,13,11.50
2013,05,07,14,14,11.60
2013,05,07,14,15,11.60
2013,05,07,14,16,11.70
2013,05,07,14,17,11.80
2013,05,07,14,18,11.90
2013,05,07,14,19,11.90
2013,05,07,14,20,12.00
2013,05,07,14,21,12.10
2013,05,07,14,22,12.10
2013,05,07,14,23,12.20
2013,05,07,14,24,12.30
2013,05,07,14,25,12.50
2013,05,07,14,26,12.70
2013,05,07,14,27,12.80
2013,05,07,14,28,12.80
2013,05,07,14,29,12.90
2013,05,07,14,30,12.90
2013,05,07,14,31,13.00
2013,05,07,14,32,13.10
2013,05,07,14,33,13.20
2013,05,07,14,34,13.30
2013,05,07,14,35,13.50
2013,05,07,14,36,13.60
2013,05,07,14,37,13.80
2013,05,07,14,38,14.00
2013,05,07,14,39,14.10
2013,05,07,14,40,14.30
2013,05,07,14,41,14.40
2013,05,07,14,42,14.40
2013,05,07,14,43,14.40
2013,05,07,14,44,14.40
2013,05,07,14,45,14.40
2013,05,07,14,46,14.50
2013,05,07,14,47,14.60
2013,05,07,14,48,14.60
2013,05,07,14,49,14.60
2013,05,07,14,50,14.70
2013,05,07,14,51,14.70
2013,05,07,14,52,14.60
2013,05,07,14,53,14.60
2013,05,07,14,54,14.60
2013,05,07,14,55,14.60
2013,05,07,14,56,14.70
2013,05,07,14,57,14.70
2013,05,07,14,58,14.70
2013,05,07,14,59,14.80
2013,05,07,15,00,14.80
2013,05,07,15,01,14.80
2013,05,07,15,02,14.80
2013,05,07,15,03,14.80
2013,05,07,15,04,14.80
2013,05,07,15,05,14.70
2013,05,07,15,06,14.70
2013,05,07,15,07,14.70
2013,05,07,15,08,14.70
2013,05,07,15,09,14.70
2013,05,07,15,10,14.80
2013,05,07,15,11,14.90
2013,05,07,15,12,15.00
2013,05,07,15,13,15.00
2013,05,07,15,14,15.10
2013,05,07,15,15,15.00
2013,05,07,15,16,15.10
2013,05,07,15,17,15.10
2013,05,07,15,18,15.10
2013,05,07,15,19,15.20
2013,05,07,15,20,15.20
2013,05,07,15,21,15.20
2013,05,07,15,22,15.30
2013,05,07,15,23,15.30
2013,05,07,15,24,15.30
2013,05,07,15,25,15.30
2013,05,07,15,26,15.30
2013,05,07,15,27,15.30
2013,05,07,15,28,15.20
2013,05,07,15,29,15.20
2013,05,07,15,30,15.20
2013,05,07,15,31,15.20
2013,05,07,15,32,15.30
2013,05,07,15,33,15.30
2013,05,07,15,34,15.30
2013,05,07,15,35,15.30
2013,05,07,15,36,15.30
2013,05,07,15,37,15.40
2013,05,07,15,38,15.40
2013,05,07,15,39,15.50
2013,05,07,15,40,15.60
2013,05,07,15,41,15.60
2013,05,07,15,42,15.70
2013,05,07,15,43,15.70
2013,05,07,15,44,15.70
2013,05,07,15,45,15.70
2013,05,07,15,46,15.90
2013,05,07,15,47,16.00
2013,05,07,15,48,16.00
2013,05,07,15,49,16.10
2013,05,07,15,50,16.20
2013,05,07,15,51,16.20
2013,05,07,15,52,16.30
2013,05,07,15,53,16.30
2013,05,07,15,54,16.40
2013,05,07,15,55,16.40
2013,05,07,15,56,16.50
2013,05,07,15,57,16.60
2013,05,07,15,58,16.60
2013,05,07,15,59,16.70
2013,05,07,16,00,16.60
2013,05,07,16,01,16.50
2013,05,07,16,02,16.40
2013,05,07,16,03,16.50
2013,05,07,16,04,16.50
2013,05,07,16,05,16.60
2013,05,07,16,06,16.60
2013,05,07,16,07,16.60
2013,05,07,16,08,16.60
2013,05,07,16,09,16.60
2013,05,07,16,10,16.60
2013,05,07,16,11,16.60
2013,05,07,16,12,16.60
2013,05,07,16,13,16.60
2013,05,07,16,14,16.60
2013,05,07,16,15,16.60
2013,05,07,16,16,16.70
2013,05,07,16,17,16.80
2013,05,07,16,18,16.90
2013,05,07,16,19,16.90
2013,05,07,16,20,16.90
2013,05,07,16,21,16.90
2013,05,07,16,22,16.90
2013,05,07,16,23,16.90
2013,05,07,16,24,16.90
2013,05,07,16,25,16.80
2013,05,07,16,26,16.90
2013,05,07,16,27,17.00
2013,05,07,16,28,17.10
2013,05,07,16,29,17.10
2013,05,07,16,30,17.10
2013,05,07,16,31,17.10
2013,05,07,16,32,17.00
2013,05,07,16,33,16.90
2013,05,07,16,34,16.80
2013,05,07,16,35,16.80
2013,05,07,16,36,16.90
2013,05,07,16,37,16.90
2013,05,07,16,38,16.90
2013,05,07,16,39,16.90
2013,05,07,16,40,17.00
2013,05,07,16,41,17.00
2013,05,07,16,42,17.10
2013,05,07,16,43,17.30
2013,05,07,16,44,17.30
2013,05,07,16,45,17.50
2013,05,07,16,46,17.60
2013,05,07,16,47,17.70
2013,05,07,16,48,17.80
2013,05,07,16,49,17.90
2013,05,07,16,50,18.00
2013,05,07,16,51,18.20
2013,05,07,16,52,18.30
2013,05,07,16,53,18.40
2013,05,07,16,54,18.50
2013,05,07,16,55,18.60
2013,05,07,16,56,18.70
2013,05,07,16,57,18.80
2013,05,07,16,58,18.80
2013,05,07,16,59,18.90
2013,05,07,17,00,18.90
2013,05,07,17,01,19.00
2013,05,07,17,02,19.00
2013,05,07,17,03,19.10
2013,05,07,17,04,19.20
2013,05,07,17,05,19.20
2013,05,07,17,06,19.20
2013,05,07,17,07,19.20
2013,05,07,17,08,19.10
2013,05,07,17,09,19.10
2013,05,07,17,10,19.10
2013,05,07,17,11,19.10
2013,05,07,17,12,19.00
2013,05,07,17,13,18.90
2013,05,07,17,14,18.90
2013,05,07,17,15,18.80
2013,05,07,17,16,18.80
2013,05,07,17,17,18.70
2013,05,07,17,18,18.70
2013,05,07,17,19,18.60
2013,05,07,17,20,18.50
2013,05,07,17,21,18.40
2013,05,07,17,22,18.30
2013,05,07,17,23,18.20
2013,05,07,17,24,18.10
2013,05,07,17,25,17.90
2013,05,07,17,26,17.70
2013,05,07,17,27,17.50